Location: Newark
(41.0400°S, 62.7845°W)
Time: 19:05:18
(UTC+00:00)

ISS - Pass Details

Date: 23 October 2021
Orbit: 417 x 423 km, 51.6° (Epoch: 29 November)

Event Time Altitude Azimuth Distance (km) Brightness Sun altitude
Rises 00:18:44 0° 246° (WSW) 2,410 1.7 -17.6°
Reaches altitude 10° 00:21:36 10° 221° (SW) 1,546 0.3 -18.1°
Maximum altitude 00:23:38 15° 185° (S) 1,292 -0.8 -18.4°
Drops below altitude 10° 00:25:41 10° 149° (SSE) 1,549 -0.8 -18.7°
Enters shadow 00:26:44 - 137° (SE) 1,831 -0.6 -18.9°
